Location: Chippewa Lake
(41.0698°N, 81.9010°W)
Time: 21:54:42
(UTC+00:00)

Lacrosse 5 - Pass Details

Date: 09 May 2021
Orbit: 715 x 724 km, 57.0° (Epoch: 15 June)

Event Time Altitude Azimuth Distance (km) Brightness Sun altitude
Exits shadow 05:47:41 11° 82° (E) 2,103 4.4 -31.2°
Drops below altitude 10° 05:48:05 10° 78° (ENE) 2,198 4.5 -31.2°
Sets 05:51:10 0° 60° (ENE) 3,125 5.6 -31.2°
